Home   Weather   Tuba City   Past weeks

Flag for USA Past Weather in Tuba City, Arizona, USA — Yesterday and Last 2 Weeks

Now
25 °F

Passing clouds.


Feels Like: 18 °F
Forecast: 21 / 44 °F
Wind: 6 mph from Northeast

Location: Grand Canyon National Park Airport

Current Time: Dec 8, 2016 at 2:51:26 am

Latest Report: Dec 8, 2016 at 1:54 am


Visibility: 10 mi

Pressure: 30.18 "Hg (24.92 "Hg at 1510m altitude)

Humidity: 53%

Dew Point: 10 °F

Location of Tuba CityLocation

Past Weather in Tuba City — Graph

°F

Tuba City Temperature Yesterday

Maximum temperature yesterday: 41 °F (at 1:54 pm)
Minimum temperature yesterday: 20 °F (at 8:54 pm)
Average temperature yesterday: 32 °F

High & Low Weather Summary for the Past Weeks

 TemperatureHumidityPressure
High54 °F (Nov 25, 1:54 pm)100% (Nov 27, 7:57 pm)30.45 "Hg (Nov 27, 7:57 pm)
Low-5 °F (Nov 30, 4:54 am)16% (Dec 4, 10:54 am)29.71 "Hg (Nov 28, 2:56 pm)
Average29 °F68%30.05 "Hg
* Reported Nov 22 9:54 pm — Dec 7 9:54 pm, Tuba City, Weather by CustomWeather, © 2016

Note: Actual official high and low records may vary slightly from our data, if they occured in-between our weather recording intervals... More about our weather records

Advertising

Tuba City Weather History for the Previous 24 Hours

Scroll right to see more
 ConditionsComfort  
Time TempWeatherWind HumidityBarometerVisibility
9:54 pm
Wed, Dec 7
22 °FClear.No wind75%30.21 "Hg10 mi
8:54 pm20 °FClear.No wind85%30.21 "Hg10 mi
7:54 pm22 °FClear.No wind85%30.19 "Hg10 mi
6:54 pm24 °FClear.5 mph75%30.16 "Hg10 mi
5:54 pm25 °FClear.No wind69%30.13 "Hg10 mi
4:54 pm36 °FSunny.5 mph35%30.07 "Hg10 mi
3:54 pm39 °FSunny.7 mph31%30.03 "Hg10 mi
2:54 pm41 °FSunny.7 mph35%30.01 "Hg10 mi
1:54 pm41 °FPassing clouds.7 mph47%30.01 "Hg10 mi
12:54 pm39 °FSunny.7 mph57%30.02 "Hg10 mi
11:54 am39 °FPassing clouds.8 mph60%30.03 "Hg10 mi
10:54 am37 °FSunny.5 mph60%30.05 "Hg10 mi
9:54 am34 °FSunny.No wind73%30.06 "Hg10 mi
8:54 am32 °FSunny.No wind88%30.04 "Hg10 mi
7:54 am31 °FPartly sunny.No wind92%30.02 "Hg10 mi
7:51 am30 °FLow clouds.No wind93%30.03 "Hg10 mi
6:54 am31 °FLow clouds.3 mph96%29.98 "Hg9 mi
5:54 am32 °FLow clouds.5 mph96%29.95 "Hg9 mi
4:54 am32 °FMostly cloudy.6 mph100%29.91 "Hg9 mi
3:54 am33 °FMostly cloudy.9 mph96%29.88 "Hg9 mi
2:54 am33 °FLow clouds.8 mph96%29.87 "Hg7 mi
Weather by CustomWeather, © 2016

See weather overviewHow to use our weather pages